• In Deutschland
  • Länderverzeichnis
  • Für 7 Tage
  • Wassertemperatur
  • Satellitenkarten
  • Wetterkarte
  • Widgets
  • user-avatar
    Anmelden

    Stündliche Wetter Celle

    Heute, 24 April, Dienstag

    Zeit Temperatur Niederschläge Wind Luftdruck Luftfeuchtigkeit
    00:00 +9°C° 0 mm 2 m/S 758 mmHg 86%
    01:00 +9°C° 0 mm 1 m/S 758 mmHg 89%
    02:00 +8°C° 0 mm 2 m/S 758 mmHg 88%
    03:00 +8°C° 0 mm 2 m/S 757 mmHg 88%
    04:00 +8°C° 0 mm 3 m/S 757 mmHg 87%
    05:00 +8°C° 0,1 mm 4 m/S 757 mmHg 85%
    06:00 +8°C° 0,1 mm 4 m/S 757 mmHg 82%
    07:00 +9°C° 0,1 mm 5 m/S 757 mmHg 80%
    08:00 +9°C° 0,3 mm 5 m/S 757 mmHg 81%
    09:00 +9°C° 0,3 mm 6 m/S 757 mmHg 82%
    10:00 +10°C° 0,3 mm 6 m/S 757 mmHg 83%
    11:00 +10°C° 0,3 mm 6 m/S 757 mmHg 83%
    12:00 +10°C° 0,3 mm 6 m/S 757 mmHg 83%
    13:00 +11°C° 0,3 mm 6 m/S 757 mmHg 83%
    14:00 +11°C° 0,2 mm 6 m/S 757 mmHg 83%
    15:00 +11°C° 0,2 mm 6 m/S 757 mmHg 83%
    16:00 +12°C° 0,2 mm 5 m/S 756 mmHg 83%
    17:00 +12°C° 0,1 mm 5 m/S 756 mmHg 84%
    18:00 +11°C° 0,1 mm 4 m/S 756 mmHg 85%
    19:00 +11°C° 0,1 mm 3 m/S 756 mmHg 86%
    20:00 +11°C° 0 mm 3 m/S 756 mmHg 88%
    21:00 +10°C° 0 mm 3 m/S 756 mmHg 89%
    22:00 +10°C° 0 mm 3 m/S 755 mmHg 91%
    23:00 +10°C° 0,7 mm 3 m/S 755 mmHg 92%

    Morgen, 25 April, Mittwoch

    Zeit Temperatur Niederschläge Wind Luftdruck Luftfeuchtigkeit
    00:00 +11°C° 0,7 mm 3 m/S 754 mmHg 93%
    01:00 +11°C° 0,7 mm 4 m/S 754 mmHg 94%
    02:00 +11°C° 0,5 mm 4 m/S 753 mmHg 94%
    03:00 +12°C° 0,5 mm 4 m/S 753 mmHg 93%
    04:00 +12°C° 0,5 mm 5 m/S 752 mmHg 93%
    05:00 +12°C° 0,7 mm 5 m/S 752 mmHg 93%
    06:00 +12°C° 0,7 mm 5 m/S 752 mmHg 93%
    07:00 +12°C° 0,7 mm 5 m/S 752 mmHg 93%
    08:00 +12°C° 0,6 mm 5 m/S 752 mmHg 92%
    09:00 +13°C° 0,6 mm 5 m/S 752 mmHg 91%
    10:00 +13°C° 0,6 mm 5 m/S 752 mmHg 90%
    11:00 +13°C° 0,6 mm 5 m/S 752 mmHg 89%
    12:00 +13°C° 0,6 mm 4 m/S 752 mmHg 88%
    13:00 +13°C° 0,6 mm 4 m/S 752 mmHg 87%
    14:00 +13°C° 0,2 mm 4 m/S 752 mmHg 85%
    15:00 +13°C° 0,2 mm 4 m/S 752 mmHg 82%
    16:00 +14°C° 0,2 mm 5 m/S 752 mmHg 79%
    17:00 +13°C° 0,5 mm 4 m/S 752 mmHg 82%
    18:00 +12°C° 0,5 mm 4 m/S 752 mmHg 85%
    19:00 +11°C° 0,5 mm 3 m/S 753 mmHg 87%
    20:00 +10°C° 0,1 mm 3 m/S 753 mmHg 89%
    21:00 +9°C° 0,1 mm 3 m/S 754 mmHg 91%
    22:00 +8°C° 0,1 mm 2 m/S 754 mmHg 93%
    23:00 +8°C° 0,1 mm 3 m/S 754 mmHg 93%

    übermorgen, 26 April, Donnerstag

    Zeit Temperatur Niederschläge Wind Luftdruck Luftfeuchtigkeit
    00:00 +8°C° 0,1 mm 3 m/S 754 mmHg 94%
    01:00 +7°C° 0,1 mm 3 m/S 755 mmHg 94%
    02:00 +6°C° 0 mm 4 m/S 755 mmHg 93%
    03:00 +6°C° 0 mm 4 m/S 755 mmHg 93%
    04:00 +6°C° 0 mm 4 m/S 754 mmHg 92%
    05:00 +6°C° 0,1 mm 5 m/S 755 mmHg 90%
    06:00 +7°C° 0,1 mm 6 m/S 755 mmHg 88%
    07:00 +7°C° 0,1 mm 6 m/S 755 mmHg 86%
    08:00 +8°C° 0,3 mm 7 m/S 755 mmHg 82%
    09:00 +7°C° 0,3 mm 8 m/S 755 mmHg 79%
    10:00 +9°C° 0,3 mm 8 m/S 756 mmHg 75%
    11:00 +9°C° 0,3 mm 8 m/S 756 mmHg 72%
    12:00 +10°C° 0,3 mm 8 m/S 756 mmHg 69%
    13:00 +10°C° 0,3 mm 7 m/S 756 mmHg 66%
    14:00 +10°C° 0,3 mm 7 m/S 757 mmHg 64%
    15:00 +11°C° 0,3 mm 7 m/S 757 mmHg 63%
    16:00 +11°C° 0,3 mm 6 m/S 757 mmHg 62%
    17:00 +10°C° 0,2 mm 5 m/S 757 mmHg 67%
    18:00 +10°C° 0,2 mm 4 m/S 757 mmHg 72%
    19:00 +9°C° 0,2 mm 3 m/S 757 mmHg 77%
    20:00 +8°C° 0 mm 3 m/S 758 mmHg 81%
    21:00 +7°C° 0 mm 2 m/S 758 mmHg 84%
    22:00 +6°C° 0 mm 2 m/S 759 mmHg 87%
    23:00 +6°C° 0 mm 2 m/S 758 mmHg 87%

    27 April, Freitag

    Zeit Temperatur Niederschläge Wind Luftdruck Luftfeuchtigkeit
    00:00 +5°C° 0 mm 2 m/S 758 mmHg 87%
    01:00 +4°C° 0 mm 3 m/S 758 mmHg 87%
    02:00 +4°C° 0 mm 3 m/S 758 mmHg 87%
    03:00 +4°C° 0 mm 3 m/S 758 mmHg 87%
    04:00 +3°C° 0 mm 3 m/S 758 mmHg 87%
    05:00 +4°C° 0 mm 3 m/S 758 mmHg 84%
    06:00 +5°C° 0 mm 3 m/S 758 mmHg 82%
    07:00 +7°C° 0 mm 3 m/S 758 mmHg 79%
    08:00 +9°C° 0 mm 3 m/S 758 mmHg 74%
    09:00 +10°C° 0 mm 3 m/S 758 mmHg 68%
    10:00 +12°C° 0 mm 3 m/S 758 mmHg 62%
    11:00 +12°C° 0,1 mm 3 m/S 757 mmHg 59%
    12:00 +13°C° 0,1 mm 3 m/S 757 mmHg 57%
    13:00 +13°C° 0,1 mm 3 m/S 757 mmHg 55%
    14:00 +13°C° 0,1 mm 3 m/S 757 mmHg 55%
    15:00 +13°C° 0,1 mm 3 m/S 757 mmHg 56%
    16:00 +14°C° 0,1 mm 2 m/S 757 mmHg 56%
    17:00 +13°C° 0,1 mm 2 m/S 757 mmHg 62%
    18:00 +12°C° 0,1 mm 2 m/S 757 mmHg 68%
    19:00 +11°C° 0,1 mm 1 m/S 757 mmHg 74%
    20:00 +10°C° 0 mm 1 m/S 758 mmHg 78%
    21:00 +9°C° 0 mm 1 m/S 758 mmHg 82%
    22:00 +8°C° 0 mm 1 m/S 758 mmHg 85%
    23:00 +7°C° 0 mm 1 m/S 758 mmHg 87%

    28 April, Samstag

    Zeit Temperatur Niederschläge Wind Luftdruck Luftfeuchtigkeit
    00:00 +6°C° 0 mm 0 m/S 758 mmHg 89%
    01:00 +5°C° 0 mm 0 m/S 759 mmHg 90%
    02:00 +5°C° 0 mm 0 m/S 759 mmHg 91%
    03:00 +5°C° 0 mm 0 m/S 759 mmHg 92%
    04:00 +5°C° 0 mm 1 m/S 759 mmHg 93%
    05:00 +6°C° 0 mm 1 m/S 759 mmHg 89%
    06:00 +7°C° 0 mm 1 m/S 759 mmHg 86%
    07:00 +8°C° 0 mm 1 m/S 759 mmHg 83%
    08:00 +10°C° 0 mm 1 m/S 760 mmHg 75%
    09:00 +12°C° 0 mm 1 m/S 760 mmHg 67%
    10:00 +14°C° 0 mm 2 m/S 760 mmHg 60%
    11:00 +15°C° 0 mm 2 m/S 760 mmHg 56%
    12:00 +15°C° 0 mm 2 m/S 759 mmHg 52%
    13:00 +16°C° 0 mm 2 m/S 759 mmHg 48%
    14:00 +17°C° 0 mm 2 m/S 759 mmHg 49%
    15:00 +17°C° 0 mm 2 m/S 759 mmHg 49%
    16:00 +17°C° 0 mm 3 m/S 758 mmHg 49%
    17:00 +16°C° 0 mm 3 m/S 758 mmHg 56%
    18:00 +13°C° 0 mm 3 m/S 758 mmHg 62%
    19:00 +13°C° 0 mm 2 m/S 758 mmHg 69%
    20:00 +11°C° 0 mm 3 m/S 758 mmHg 71%
    21:00 +10°C° 0 mm 3 m/S 759 mmHg 74%
    22:00 +9°C° 0 mm 3 m/S 759 mmHg 77%
    23:00 +8°C° 0 mm 3 m/S 759 mmHg 79%

    29 April, Sonntag

    Zeit Temperatur Niederschläge Wind Luftdruck Luftfeuchtigkeit
    00:00 +8°C° 0 mm 3 m/S 758 mmHg 80%
    01:00 +7°C° 0 mm 4 m/S 758 mmHg 82%
    02:00 +6°C° 0 mm 4 m/S 758 mmHg 82%
    03:00 +6°C° 0 mm 4 m/S 758 mmHg 82%
    04:00 +6°C° 0 mm 4 m/S 757 mmHg 82%
    05:00 +6°C° 0 mm 4 m/S 757 mmHg 79%
    06:00 +7°C° 0 mm 5 m/S 757 mmHg 76%
    07:00 +8°C° 0 mm 5 m/S 756 mmHg 73%
    08:00 +10°C° 0 mm 5 m/S 756 mmHg 70%
    09:00 +13°C° 0 mm 6 m/S 755 mmHg 67%
    10:00 +15°C° 0 mm 6 m/S 755 mmHg 64%
    11:00 +16°C° 0 mm 7 m/S 754 mmHg 62%
    12:00 +17°C° 0 mm 7 m/S 754 mmHg 60%
    13:00 +18°C° 0 mm 7 m/S 753 mmHg 58%
    14:00 +18°C° 0 mm 7 m/S 753 mmHg 61%
    15:00 +19°C° 0 mm 6 m/S 752 mmHg 63%
    16:00 +17°C° 0 mm 5 m/S 751 mmHg 65%
    17:00 +17°C° 0,2 mm 5 m/S 751 mmHg 69%
    18:00 +16°C° 0,2 mm 5 m/S 751 mmHg 72%
    19:00 +15°C° 0,2 mm 4 m/S 751 mmHg 76%
    20:00 +14°C° 1,1 mm 4 m/S 751 mmHg 81%
    21:00 +14°C° 1,1 mm 4 m/S 751 mmHg 86%
    22:00 +13°C° 1,1 mm 3 m/S 751 mmHg 92%
    23:00 +12°C° 0,3 mm 3 m/S 750 mmHg 93%
    Mehr zeigen